User: anonymous   Login
Location: Guilderland
(42.7045°N, 73.9115°W)
Time: 19:35:11
(UTC+00:00)
Language:

Cosmos 2251 Rocket - Orbit

View from above orbital plane
View from above orbital plane
View from above satellite
View from above satellite

Ground track
Ground track

The orbit data is extracted from the following two-line orbital elements,

1 22676U 93036B   20090.78396337 +.00000094 +00000-0 +43040-4 0  9999
2 22676 074.0409 120.6841 0020142 259.4396 100.4486 14.33997339400927
Epoch (UTC): 30 March 2020 18:48:54
Eccentricity: 0.0020142
inclination: 74.0409°
perigee height: 764 km
apogee height: 793 km
right ascension of ascending node: 120.6841°
argument of perigee: 259.4396°
revolutions per day: 14.33997339
mean anomaly at epoch: 100.4486°
orbit number at epoch: 40092

The dashed part of the orbit path shows where the satellite is in the earth's shadow,  

DLR